BREEZE-M DEB (TANK), 40366

Orbit data source: Space-Track

BREEZE-M DEB (TANK), 40366 is space debris in HEO originally from a launch on Sat, 27 Dec 2014 UTC launched from the Tyuratam Missile And Space Complex (TTMTR). Debris objects in space refer to the collection of defunct objects orbiting the Earth. Examples of debris include non-operational satellites, rocket bodies, and fragments generated from explosions, collisions, or faulty payload assembly.

Loading next visibility...
BREEZE-M DEB (TANK) details
Identifier
40366, 2014-089C
Orbit
HEO
Last TLE update11 hours ago
Origin
Flag of CISKhrunichev (CIS)
ManufacturerKhrunichev
MissionSpacecraft
Bus & MotorBRIZ TANK, Unknown motor
Mass~1,000 kg wet, 1,000 kg dry
Launch date (UTC)
2014-12-27 (10 years ago)
Launch vehicleUnknown
Launch site
Tyuratam Missile And Space Complex (TTMTR)
Object type
Payload
Rocket body
Debris
Shape & HBRTorus, 4 m
Radar Cross Section8.218 m², Large (>1 m²)

Expand to show TLE details & history

TLE from 11 hours ago
0 BREEZE-M DEB (TANK)
1 40366U 14089C   24361.10188294  .00005867  00000-0  11888-2 0  9994
2 40366  49.5432 108.7748 5172078 251.6259  47.3534  5.32212006190910
Epoch: 2024-12-26T02:26Z
Definitive object data (Epoch: 2024-12-26T02:26:42.686Z)
Latitude0.00003°
Longitude-22.99446°
Altitude5,763.577 km
Speed6.075 km/s
True Right ascension07h 15m 04s
True Declination0° 00' 00"
Sunlit
Object was in full shadow at TLE epoch
Visualization TLE readout
Latitude49.56825°
Longitude64.01461°
Altitude13,772.627 km
Speed3.289 km/s
Apparent Right ascension13h 04m 09s
Apparent Declination53° 58' 16"
Sunlit
Object is in daylight
Visualization observer readout
Local Sidereal Time13:01:22
Azimuth1.685° NNE
Elevation75.937°
Doppler factor1
Orbital elements
Apogee altitude14,647.297 km
Perigee altitude312.387 km
Semi-major axis13,857.979 km
Eccentricity0.5172078
Inclination49.5432°
RAAN108.7748°
Arg. of periapsis251.6259°
True anomaly108.45958°
Mean anomaly47.3534°
Eccentric anomaly76.1222°
Mean motion1.33043 °/min
BSTAR0.0011888
Orbital period270.59 mins
Loading maneuver chart data...
Loading historical data...
Loading historical data...
Loading historical data...
Loading historical data...
Loading historical data...
Loading historical data...
Loading historical data...
Other satellites on launch #89 in the year 2014 (2014-12-27 UTC)

BREEZE-M DEB (TANK) Visibility forecast

Observer location: undefined°, undefined

Span
Click to sort rows by Start time (UTC) header in descending order
Start Az.
Max El. time (UTC)
Max El. Az.
Max El.
End time (UTC)
End Az.
70 mins2024-12-26 13:39:39.517Z1.691° NNE2024-12-26 13:39:39.517Z1.691° NNE44.133°2024-12-26 14:49:39.517Z92.948° ESE
125 mins2024-12-26 17:27:39.517Z305.96° NW2024-12-26 19:12:39.517Z251.734° W38.717°2024-12-26 19:32:39.517Z180.802° SSW
131 mins2024-12-27 05:33:39.517Z126.819° SE2024-12-27 06:21:39.517Z79.392° E25.354°2024-12-27 07:44:39.517Z47.681° ENE
190 mins2024-12-27 10:02:39.517Z226.115° WSW2024-12-27 11:19:39.517Z320.703° NNW44.91°2024-12-27 13:12:39.517Z76.198° E
|